Welcome to the New NWS' Forecast!
Most changes are behind the scenes, but click here for differences you might notice.
Latest weather observations around

Fayetteville, Drake Field (KFYV)

Using English Units (Switch to International System of Units)
Date/ Time (CDT) Wind (mph) Vis. (mi) Weather Sky Cond. Temp (°F) Rel. Humidity Wind Chill (°F) Heat Index (°F) Pressure Precip. (in)
Air Dwpt 6 hour Altimeter (inHg) Sea level (inHg) 1 hr 3 hr 6 hr
Max Min
Sep 19 05:53 Calm 9 Clear CLR 61 61     100%     29.95 29.91      
Sep 19 04:53 S 3 9 Clear CLR 61 61     100%     29.94 29.9      
Sep 19 03:53 Calm 10 Clear CLR 62 62     100%     29.94 29.91      
Sep 19 02:53 Calm 9 Clear CLR 63 63     100%     29.95 29.91      
Sep 19 01:53 S 3 10 Clear CLR 63 63     100%     29.96 29.92      
Sep 19 00:53 S 3 9 Clear CLR 64 64     100%     29.97 29.93      
Sep 18 23:53 S 3 9 Clear CLR 64 64     100%     29.98 29.94      
Sep 18 22:53 Calm 10 Clear CLR 65 65     100%     29.99 29.96      
Sep 18 21:53 Calm 9 Clear CLR 65 65     100%     29.99 29.96      
Sep 18 20:53 Calm 10 Clear CLR 68 68     100%     29.99 29.95      
Sep 18 19:53 Calm 10 Clear CLR 70 70     100%     29.96 29.93      
Sep 18 18:53 Calm 10 Clear   79 69     72%   80 29.95 29.91      
Sep 18 17:53 SW 6 10 Mostly Clear FEW050 83 67     59%   86 29.95 29.91      
Sep 18 16:53 WSW 5 10 Clear CLR 82 67     60%   85 29.96 29.92      
Sep 18 15:53 Calm 10 Mostly Clear FEW110 81 70     69%   84 29.97 29.93      
Sep 18 14:53 NW 3 10 Mostly Clear FEW042 80 70     71%   83 29.99 29.95      
Sep 18 13:53 WNW 6 10 Partly Cloudy SCT041 82 70     67%   86 30 29.96      
Sep 18 12:53 W 10 10 Mostly Clear FEW035 81 71     72%   85 30.05 30.01     0
Sep 18 11:53 W 3 10 Clear CLR 77 71     82%   78 30.07 30.04 0    
Sep 18 10:53 W 7 10 Light Rain FEW047 FEW070 BKN100 75 71     88%   76 30.09 30.06 0    
Sep 18 09:53 SSW 3 10 Mostly Clear FEW110 75 72     90%   76 30.07 30.03      
Sep 18 08:53 Calm 10 Clear CLR 68 68     100%     30.06 30.02      
Sep 18 07:53 Calm 6 Fog/Mist CLR 65 65     100%     30.06 30.03      
Sep 18 04:09 NNW 3 7 Clear CLR 63 63     100%     30.05        
Sep 18 03:53 Calm 2.5 Fog/Mist FEW005 62 62     100%     30.05 30.02      
Sep 18 03:41 Calm 1.75 Fog/Mist FEW004 62 62     100%     30.05        
Sep 18 02:53 Calm 7 Clear CLR 64 64     100%     30.05 30.02      
Sep 18 01:53 E 3 9 Clear CLR 65 65     100%     30.05 30.02      
Sep 18 00:53 Calm 10 Clear CLR 66 66     100%     30.04 30     0
Sep 17 23:53 Calm 9 Clear CLR 66 66     100%     30.05 30.01      
Sep 17 22:53 Calm 10 Clear CLR 66 66     100%     30.04 30.01      
Sep 17 21:53 Calm 10 Partly Cloudy SCT110 67 67     100%     30.04 30.01   0  
Sep 17 20:53 SW 3 10 Clear CLR 67 67     100%     30.08 30.04      
Sep 17 19:53 S 5 10 Mostly Clear FEW070 67 67     100%     30.09 30.05 0    
Sep 17 18:53 SSE 3 10 Cloudy BKN060 OVC085 68 68     100%     30.11 30.07 0   2
Sep 17 17:53 Calm 10 Cloudy FEW090 OVC100 68 67     96%     30.1 30.08      
Sep 17 16:53 ESE 5 10 Partly Cloudy SCT100 69 66     90%     30.1 30.07      
Sep 17 15:53 ENE 9 10 Mostly Cloudy FEW009 SCT080 BKN110 68 67     96%     30.11 30.08   1  
Sep 17 14:53 ENE 11 10 Cloudy FEW008 BKN060 OVC070 67 67     100%     30.15 30.12 1    
Sep 17 14:32 NE 9 5 Light Rain and Fog/Mist SCT023 OVC060 66 66     100%     30.17   1    
Sep 17 14:25 NE 8 5 Light Rain and Fog/Mist FEW009 BKN020 OVC060 66 66     100%     30.17   1    
Sep 17 14:18 NNE 11 5 Light Rain and Fog/Mist BKN016 OVC065 65 65     100%     30.18   1    
Sep 17 14:16 NNE 10 0.75 Rain and Fog/Mist FEW007 BKN014 OVC065 65 65     100%     30.18   1    
Sep 17 14:09 N 14 0.25 Thunderstorms and Heavy Rain and Fog BKN010 OVC021 65 65     100%     30.17   1    
Sep 17 13:58 N 18 0.25 Thunderstorms and Heavy Rain and Fog BKN006 BKN017 OVC031 66 66     100%     30.17   0    
Sep 17 13:53   0.25 Thunderstorms and Heavy Rain and Fog SCT006 BKN017 OVC031 67 67     100%     30.18 30.15 0    
Sep 17 13:49   1.75 Thunderstorms and Rain and Fog/Mist SCT013 BKN021 OVC042 70 66     88%     30.17   0    
Sep 17 13:37 NE 14 10 Thunderstorms BKN031 BKN038 OVC075 74 69     85%   75 30.12        
Sep 17 13:22 NE 9 10 Cloudy SCT032 BKN065 OVC080 79 70     74%   82 30.12        
Sep 17 12:53 ENE 5 10 Mostly Cloudy BKN070 81 70     69%   84 30.13 30.09      
Sep 17 11:53 E 6 10 Cloudy OVC070 78 70     76%   79 30.15 30.11      
Sep 17 10:53 ENE 5 10 Mostly Cloudy FEW060 BKN095 76 70     82%   77 30.15 30.11      
Sep 17 09:53 6 10 Partly Cloudy SCT110 79 70     74%   82 30.11 30.07      
Sep 17 08:53 W 3 10 Mostly Clear FEW120 72 69     91%   73 30.09 30.05      
Sep 17 07:53 S 3 9 Cloudy OVC120 67 67     100%     30.09 30.05      
Sep 17 06:53 SSW 5 10 Clear CLR 67 66     97%     30.08 30.04      
Sep 17 05:53 Calm 8 Clear CLR 64 64     100%     30.06 30.02      
Sep 17 04:53 SSE 3 8 Mostly Clear FEW120 65 65     100%     30.05 30      
Sep 17 03:53 Calm 5 Fog/Mist CLR 64 64     100%     30.05 30.01      
Sep 17 01:53 NNW 3 8 Clear CLR 66 66     100%     30.06 30.02      
Sep 17 00:53 Calm 8 Clear CLR 67 67     100%     30.05 30.01      
Sep 16 23:53 Calm 10 Clear CLR 68 68     100%     30.06 30.02      
Sep 16 22:53 Calm 9 Clear CLR 68 68     100%     30.06 30.03      
Sep 16 21:53 Calm 10 Clear CLR 69 67     93%     30.05 30.01      
Sep 16 20:53 Calm 10 Clear CLR 70 69     97%     30.03 30      
Sep 16 19:53 Calm 10 Clear CLR 73 68     84%   74 30.01 29.98      
Sep 16 18:53 ESE 6 10 Clear CLR 80 67     64%   82 29.99 29.96      
Sep 16 17:53 SSE 9 10 Clear CLR 82 67     60%   85 29.99 29.95      
Sep 16 16:53 S 10 10 Clear CLR 84 66     55%   86 29.98 29.94      
Sep 16 15:53 S 10 10 Clear CLR 85 68     57%   88 29.99 29.95      
Sep 16 14:53 S 8 10 Clear CLR 84 69     61%   88 30 29.96      
Sep 16 13:53 S 11 10 Mostly Clear FEW035 85 70     61%   89 30.02 29.97      
Sep 16 12:53 S 11 10 Clear CLR 83 69     63%   87 30.03 29.98      
Sep 16 11:53 S 13 10 Clear CLR 81 69     67%   84 30.05 30.01      
Sep 16 10:53 S 11 10 Clear CLR 79 68     69%   80 30.06 30.03      
Sep 16 09:53 SSE 13 10 Clear CLR 76 67     74%   77 30.06 30.03      
Sep 16 08:53 Calm 10 Clear CLR 70 66     87%     30.05 30.02      
Sep 16 07:53 Calm 5 Fog/Mist CLR 61 61     100%     30.04 30.01      
Sep 16 06:53 Calm 4 Fog/Mist CLR 58 58     100%     30.03 30      
Sep 16 06:51 Calm 1.75 Fog/Mist CLR 57 57     100%     30.03        
Sep 16 05:53 Calm 4 Fog/Mist CLR 59 59     100%     30.02 29.98      
Sep 16 04:53 E 3 7 Clear CLR 61 61     100%     30.01 29.97      
Sep 16 03:53 NW 5 9 Clear CLR 62 62     100%     29.99 29.95      
Jun 11 22:53 SSE 11 10 Clear CLR 75 63     66%   75 29.97 29.93      
Jun 10 17:53 S 16 10 Clear   80 66     62%   82 29.89 29.86      
Jun 10 00:53 Calm 10 Clear CLR 60 60     100%     29.93 29.9      
Jun 08 12:53 Calm 10 Clear CLR 77 52     42%   76 30.05 30.02      
Jun 07 20:53 Calm 10 Clear CLR 64 57     78%     30.02 29.99      
Jun 06 04:53 Calm 0.25 Fog VV002 62 62     100%     29.9 29.86      
Jun 06 02:53 Calm 0.5 Fog VV002 63 63     100%     29.88 29.85      
Jun 05 18:53 E 3 10 Clear CLR 79 71     77%   82 29.82 29.78     1
Jun 05 16:53 5 10 Mostly Clear FEW029 80 71     74%   84 29.8 29.76      
Notice The following observation data may not be complete
Jun 05 14:21   10 Mostly Cloudy SCT016 SCT075 BKN110          %         1    
Jun 05 14:13 E 5 4 Thunderstorms and Rain and Fog/Mist BKN020 BKN075 OVC110 70 70     100%     29.83   1    
Notice The following observation data may not be complete
Jun 05 14:10 SE 6 1 Thunderstorms and Rain and Fog/Mist BKN020 BKN075 OVC120   69      %     29.83   1